timestamp,wind_dir_avg,wind_spd_avg,wind_spd_max_dir,wind_spd_gust,battery_voltage,lat,long
2021-03-26 00:04:01+00:00,215.0,3.31,216.0,3.66,12.57,47.59359,-54.27349
2021-03-26 00:14:01+00:00,194.0,4.09,192.0,4.64,12.49,47.59359,-54.27349
2021-03-26 00:24:01+00:00,195.0,5.25,197.0,5.62,12.49,47.59359,-54.27349
2021-03-26 00:34:01+00:00,202.0,5.64,204.0,5.92,12.49,47.59359,-54.27349
2021-03-26 00:44:01+00:00,208.0,5.16,210.0,5.95,12.49,47.59359,-54.27349
2021-03-26 00:54:01+00:00,211.0,2.98,210.0,3.39,12.49,47.59359,-54.27349
2021-03-26 01:04:01+00:00,214.0,2.77,215.0,2.93,12.49,47.59359,-54.27349
2021-03-26 01:14:01+00:00,215.0,4.49,217.0,5.07,12.49,47.59359,-54.27349
2021-03-26 01:24:01+00:00,215.0,4.29,216.0,4.65,12.49,47.59359,-54.27349
2021-03-26 01:34:01+00:00,231.0,3.37,237.0,3.71,12.49,47.59359,-54.27349
2021-03-26 01:44:01+00:00,185.0,1.79,191.0,2.16,12.49,47.59359,-54.27349
2021-03-26 01:54:01+00:00,187.0,3.35,187.0,3.78,12.49,47.59359,-54.27349
2021-03-26 02:04:01+00:00,201.0,3.45,196.0,3.89,12.49,47.59359,-54.27349
2021-03-26 02:14:01+00:00,212.0,4.8,214.0,5.28,12.49,47.59359,-54.27349
2021-03-26 02:24:01+00:00,206.0,4.66,204.0,5.03,12.49,47.59359,-54.27349
2021-03-26 02:34:01+00:00,187.0,4.74,191.0,5.29,12.49,47.59359,-54.27349
2021-03-26 02:44:01+00:00,196.0,5.44,196.0,5.86,12.49,47.59359,-54.27349
2021-03-26 02:54:01+00:00,210.0,4.78,211.0,5.13,12.49,47.59359,-54.27349
2021-03-26 03:04:01+00:00,212.0,3.08,216.0,3.4,12.49,47.59359,-54.27349
2021-03-26 03:14:01+00:00,195.0,3.96,195.0,4.37,12.49,47.59359,-54.27349
2021-03-26 03:24:01+00:00,197.0,5.52,196.0,5.73,12.49,47.59359,-54.27349
2021-03-26 03:34:01+00:00,220.0,5.73,212.0,7.28,12.49,47.59359,-54.27349
2021-03-26 03:44:01+00:00,228.0,6.41,230.0,7.36,12.49,47.59359,-54.27349
2021-03-26 03:54:01+00:00,218.0,5.65,220.0,6.81,12.49,47.59359,-54.27349
2021-03-26 04:04:01+00:00,239.0,7.35,239.0,8.17,12.49,47.59359,-54.27349
2021-03-26 04:14:01+00:00,238.0,6.91,239.0,8.56,12.41,47.59359,-54.27349
2021-03-26 04:24:01+00:00,233.0,6.68,235.0,8.06,12.41,47.59359,-54.27349
2021-03-26 04:34:01+00:00,234.0,7.16,241.0,7.85,12.41,47.59359,-54.27349
2021-03-26 04:44:01+00:00,233.0,6.85,231.0,7.95,12.41,47.59359,-54.27349
2021-03-26 04:54:01+00:00,231.0,7.5,228.0,8.37,12.41,47.59359,-54.27349
2021-03-26 05:04:01+00:00,244.0,7.35,240.0,7.97,12.41,47.59359,-54.27349
2021-03-26 05:14:01+00:00,240.0,7.34,239.0,8.2,12.41,47.59359,-54.27349
2021-03-26 05:24:01+00:00,237.0,5.93,235.0,6.58,12.41,47.59359,-54.27349
2021-03-26 05:34:01+00:00,235.0,5.74,242.0,6.51,12.41,47.59359,-54.27349
2021-03-26 05:44:01+00:00,227.0,5.98,221.0,7.15,12.41,47.59359,-54.27349
2021-03-26 05:54:01+00:00,217.0,7.47,214.0,8.73,12.41,47.59359,-54.27349
2021-03-26 06:04:01+00:00,218.0,6.56,221.0,7.49,12.41,47.59359,-54.27349
2021-03-26 06:14:01+00:00,218.0,6.76,219.0,7.74,12.41,47.59359,-54.27349
2021-03-26 06:24:01+00:00,221.0,7.55,218.0,8.46,12.41,47.59359,-54.27349
2021-03-26 06:34:01+00:00,223.0,7.26,221.0,8.01,12.41,47.59359,-54.27349
2021-03-26 06:44:01+00:00,215.0,7.98,222.0,9.52,12.41,47.59359,-54.27349
2021-03-26 06:54:01+00:00,216.0,6.61,216.0,7.32,12.41,47.59359,-54.27349
2021-03-26 07:04:01+00:00,212.0,7.2,214.0,8.14,12.41,47.59359,-54.27349
2021-03-26 07:14:01+00:00,214.0,8.23,213.0,9.12,12.41,47.59359,-54.27349
2021-03-26 07:24:01+00:00,205.0,7.84,210.0,8.58,12.41,47.59359,-54.27349
2021-03-26 07:34:01+00:00,209.0,8.46,211.0,9.02,12.41,47.59359,-54.27349
2021-03-26 07:44:01+00:00,212.0,8.9,213.0,9.75,12.41,47.59359,-54.27349
2021-03-26 07:54:01+00:00,209.0,8.47,213.0,9.38,12.41,47.59359,-54.27349
2021-03-26 08:04:01+00:00,209.0,8.88,212.0,9.8,12.41,47.59359,-54.27349
2021-03-26 08:14:01+00:00,209.0,9.37,209.0,9.98,12.33,47.59359,-54.27349
2021-03-26 08:24:01+00:00,206.0,9.48,206.0,10.76,12.33,47.59359,-54.27349
2021-03-26 08:34:01+00:00,210.0,9.75,208.0,11.15,12.33,47.59359,-54.27349
2021-03-26 08:44:01+00:00,212.0,8.63,210.0,10.23,12.33,47.59359,-54.27349
2021-03-26 08:54:01+00:00,213.0,9.74,211.0,11.19,12.33,47.59359,-54.27349
2021-03-26 09:04:01+00:00,212.0,9.25,214.0,10.51,12.33,47.59359,-54.27349
2021-03-26 09:14:01+00:00,212.0,9.21,214.0,10.05,12.33,47.59359,-54.27349
2021-03-26 09:24:01+00:00,213.0,8.98,219.0,10.17,12.33,47.59359,-54.27349
2021-03-26 09:34:01+00:00,206.0,8.13,209.0,8.95,12.33,47.59359,-54.27349
2021-03-26 09:44:01+00:00,201.0,8.68,203.0,9.42,12.33,47.59359,-54.27349
2021-03-26 09:54:01+00:00,204.0,9.78,206.0,10.67,12.33,47.59359,-54.27349
2021-03-26 10:04:01+00:00,207.0,9.43,208.0,10.55,12.33,47.59359,-54.27349
2021-03-26 10:14:01+00:00,208.0,9.71,208.0,11.12,12.33,47.59359,-54.27349
2021-03-26 10:24:01+00:00,210.0,9.54,212.0,10.9,12.33,47.59359,-54.27349
2021-03-26 10:34:01+00:00,211.0,11.14,214.0,12.14,12.33,47.59359,-54.27349
2021-03-26 10:44:01+00:00,208.0,11.23,210.0,12.66,12.33,47.59359,-54.27349
2021-03-26 10:54:01+00:00,211.0,10.37,212.0,11.96,12.33,47.59359,-54.27349
2021-03-26 11:04:01+00:00,213.0,10.72,213.0,12.79,12.33,47.59359,-54.27349
2021-03-26 11:14:01+00:00,210.0,9.44,211.0,10.71,12.41,47.59359,-54.27349
2021-03-26 11:24:01+00:00,209.0,9.42,209.0,10.83,12.41,47.59359,-54.27349
2021-03-26 11:34:01+00:00,208.0,8.61,209.0,9.5,12.41,47.59359,-54.27349
2021-03-26 11:44:01+00:00,215.0,6.46,215.0,7.54,12.41,47.59359,-54.27349
2021-03-26 11:54:01+00:00,216.0,7.48,218.0,8.46,12.41,47.59359,-54.27349
2021-03-26 12:04:01+00:00,220.0,6.53,222.0,7.69,12.41,47.59359,-54.27349
2021-03-26 12:14:01+00:00,211.0,4.98,213.0,5.57,12.97,47.59359,-54.27349
2021-03-26 12:24:01+00:00,203.0,6.31,206.0,7.29,12.97,47.59359,-54.27349
2021-03-26 12:34:01+00:00,203.0,6.66,207.0,7.53,12.97,47.59359,-54.27349
2021-03-26 12:44:01+00:00,204.0,7.64,203.0,8.46,12.97,47.59359,-54.27349
2021-03-26 12:54:01+00:00,201.0,8.12,201.0,8.93,12.97,47.59359,-54.27349
2021-03-26 13:04:01+00:00,204.0,9.02,206.0,10.24,12.97,47.59359,-54.27349
2021-03-26 14:14:01+00:00,210.0,10.37,211.0,11.32,13.84,47.59359,-54.27349
2021-03-26 14:24:01+00:00,209.0,9.61,213.0,10.9,13.84,47.59359,-54.27349
2021-03-26 14:34:01+00:00,204.0,9.8,205.0,10.74,13.84,47.59359,-54.27349
2021-03-26 14:44:01+00:00,205.0,9.12,208.0,10.78,13.84,47.59359,-54.27349
2021-03-26 14:54:01+00:00,207.0,8.86,204.0,10.1,13.84,47.59359,-54.27349
2021-03-26 15:04:01+00:00,206.0,9.57,211.0,10.67,13.84,47.59359,-54.27349
2021-03-26 15:14:01+00:00,203.0,10.07,206.0,11.38,13.76,47.59359,-54.27349
2021-03-26 15:24:01+00:00,202.0,10.76,201.0,11.76,13.76,47.59359,-54.27349
2021-03-26 15:34:01+00:00,201.0,9.04,203.0,10.12,13.76,47.59359,-54.27349
2021-03-26 15:44:01+00:00,207.0,9.5,205.0,10.8,13.76,47.59359,-54.27349
2021-03-26 15:54:01+00:00,208.0,9.57,208.0,11.06,13.76,47.59359,-54.27349
2021-03-26 16:04:01+00:00,208.0,9.46,210.0,10.53,13.76,47.59359,-54.27349
2021-03-26 16:14:01+00:00,209.0,9.23,211.0,10.17,13.84,47.59359,-54.27349
2021-03-26 16:24:01+00:00,207.0,8.84,204.0,9.46,13.84,47.59359,-54.27349
2021-03-26 16:34:01+00:00,207.0,9.35,206.0,10.43,13.84,47.59359,-54.27349
2021-03-26 16:44:01+00:00,200.0,9.68,201.0,10.42,13.84,47.59359,-54.27349
2021-03-26 16:54:01+00:00,204.0,9.01,203.0,10.05,13.84,47.59359,-54.27349
2021-03-26 17:04:01+00:00,203.0,9.12,202.0,9.88,13.84,47.59359,-54.27349
2021-03-26 17:14:01+00:00,203.0,7.69,206.0,8.49,13.84,47.59359,-54.27349
2021-03-26 17:24:01+00:00,207.0,8.49,208.0,9.09,13.84,47.59359,-54.27349
2021-03-26 17:34:01+00:00,208.0,9.0,206.0,10.01,13.84,47.59359,-54.27349
2021-03-26 17:44:01+00:00,212.0,8.76,217.0,9.65,13.84,47.59359,-54.27349
2021-03-26 17:54:01+00:00,211.0,9.05,215.0,9.67,13.84,47.59359,-54.27349
2021-03-26 18:04:01+00:00,209.0,9.03,208.0,10.18,13.84,47.59359,-54.27349
2021-03-26 18:14:01+00:00,209.0,8.41,211.0,9.57,13.84,47.59359,-54.27349
2021-03-26 18:24:01+00:00,206.0,8.41,205.0,9.5,13.84,47.59359,-54.27349
2021-03-26 18:34:01+00:00,205.0,7.34,203.0,7.92,13.84,47.59359,-54.27349
2021-03-26 18:44:01+00:00,206.0,8.22,207.0,8.7,13.84,47.59359,-54.27349
2021-03-26 18:54:01+00:00,205.0,7.16,207.0,8.06,13.84,47.59359,-54.27349
2021-03-26 19:04:01+00:00,206.0,8.0,209.0,8.76,13.84,47.59359,-54.27349
2021-03-26 19:14:01+00:00,208.0,8.59,212.0,9.52,13.92,47.59359,-54.27349
2021-03-26 19:24:01+00:00,207.0,9.02,207.0,9.8,13.92,47.59359,-54.27349
2021-03-26 19:34:01+00:00,218.0,8.33,220.0,9.02,13.92,47.59359,-54.27349
2021-03-26 19:44:01+00:00,215.0,7.31,217.0,8.19,13.92,47.59359,-54.27349
2021-03-26 19:54:01+00:00,219.0,7.73,217.0,9.06,13.92,47.59359,-54.27349
2021-03-26 20:04:01+00:00,217.0,7.44,217.0,8.41,13.92,47.59359,-54.27349
2021-03-26 20:14:01+00:00,216.0,7.99,218.0,9.02,13.68,47.59359,-54.27349
2021-03-26 20:24:01+00:00,221.0,8.46,221.0,9.6,13.68,47.59359,-54.27349
2021-03-26 20:34:01+00:00,220.0,7.64,220.0,8.78,13.68,47.59359,-54.27349
2021-03-26 20:44:01+00:00,218.0,7.11,217.0,7.73,13.68,47.59359,-54.27349
2021-03-26 20:54:01+00:00,212.0,6.16,215.0,6.79,13.68,47.59359,-54.27349
2021-03-26 21:04:01+00:00,208.0,7.05,207.0,7.64,13.68,47.59359,-54.27349
2021-03-26 21:14:01+00:00,209.0,7.29,210.0,7.93,13.37,47.59359,-54.27349
2021-03-26 21:24:01+00:00,217.0,6.7,218.0,7.57,13.37,47.59359,-54.27349
2021-03-26 21:34:01+00:00,221.0,7.06,221.0,7.64,13.37,47.59359,-54.27349
2021-03-26 21:44:01+00:00,212.0,4.92,214.0,5.8,13.37,47.59359,-54.27349
2021-03-26 21:54:01+00:00,215.0,5.74,215.0,5.99,13.37,47.59359,-54.27349
2021-03-26 22:04:01+00:00,203.0,3.38,203.0,3.62,13.37,47.59359,-54.27349
2021-03-26 22:14:01+00:00,205.0,6.68,207.0,7.14,12.81,47.59359,-54.27349
2021-03-26 22:24:01+00:00,183.0,2.51,185.0,2.96,12.81,47.59359,-54.27349
2021-03-26 22:34:01+00:00,201.0,5.86,210.0,6.59,12.81,47.59359,-54.27349
2021-03-26 22:44:01+00:00,217.0,4.57,216.0,4.76,12.81,47.59359,-54.27349
2021-03-26 22:54:01+00:00,202.0,6.35,202.0,7.35,12.81,47.59359,-54.27349
2021-03-26 23:04:01+00:00,209.0,5.44,211.0,5.87,12.81,47.59359,-54.27349
2021-03-26 23:14:01+00:00,191.0,4.84,191.0,5.35,12.57,47.59359,-54.27349
2021-03-26 23:24:01+00:00,181.0,2.9,184.0,3.77,12.57,47.59359,-54.27349
2021-03-26 23:34:01+00:00,185.0,2.57,183.0,2.96,12.57,47.59359,-54.27349
2021-03-26 23:44:01+00:00,209.0,4.92,213.0,5.28,12.57,47.59359,-54.27349
2021-03-26 23:54:01+00:00,211.0,2.37,212.0,2.72,12.57,47.59359,-54.27349
